Starlink 35590

operational
NORAD ID: 66108 Int'l Des: 2025-236 Owner: SPXS Country: US Constellation: starlink
NOTLE

About Starlink 35590

Description loading...

Live Position

Loading 3D Globe...

Upcoming Passes

Altitude History

Altitude vs Time

uPlot chart will show altitude changes over time

Two-Line Element Set

1 66108U 25236Y 25310.90691623 -.00019131 00000-0 -12706-3 0 9992
2 66108 53.1574 317.9300 0000571 84.2580 275.8505 15.74111407 4031
Epoch: Nov 6, 2025 • Age: 6 hours

Current Status

Altitude 352.4 km
Velocity 7.70 km/s
Sub-Earth Point 49.08°N, 93.14°W
Launch Date Oct 19, 2025
Age 18 days
Type internet

Technical Details

Classification Payload
Mass 575.00 kg
Dry Mass 530.00 kg
Total Mass 575.00 kg
Length 0.30 m
Diameter 4.10 m
Span 29.00 m
Shape Box + pan
Manufacturer SPXS
Bus Type Starlink V2MO
Phase Status In Orbit
Owner/State SPXS/US

Large Constellations

Loading constellations...